{"data":{"norad_id":62988,"epoch":"2026-09-21T16:55:45.056640Z","epoch_age_seconds":61240,"freshness":"FRESH","line1":"1 62988U 25031H   26264.70538260  .00178696  00000+0  13651-2 0  9999","line2":"2 62988  42.9995 259.6680 0001301 262.4945  97.5775 15.70862758 93546","mean_motion":15.70862758,"eccentricity":0.0001301,"inclination_deg":42.9995,"raan_deg":259.668,"arg_perigee_deg":262.4945,"mean_anomaly_deg":97.5775,"bstar":0.0013651,"rev_number":9354,"period_min":91.669370393209,"perigee_km":355.55384856189,"apogee_km":357.30618289939,"semimajor_km":6734.5670157306,"source":"CELESTRAK","updated_at":"2026-09-22T09:00:49.717935Z"}}